• In Moldova, Republic
  • List of Countries
  • For 7 days
  • Water Temperature
  • Satellite Maps
  • Weather Map
  • Weather Widgets
  • user-avatar
    Login

    Hourly Weather Lankaran

    Today, 21 September, Thursday

    Time Temperature Precipitation Wind Pressure Humidity
    00:00 +16°C° 0 mm 2 mps 636 mmHg 49%
    01:00 +16°C° 0 mm 1 mps 636 mmHg 48%
    02:00 +16°C° 0 mm 1 mps 635 mmHg 48%
    03:00 +15°C° 0 mm 1 mps 635 mmHg 47%
    04:00 +15°C° 0 mm 1 mps 635 mmHg 48%
    05:00 +15°C° 0 mm 1 mps 635 mmHg 48%
    06:00 +15°C° 0 mm 1 mps 635 mmHg 49%
    07:00 +18°C° 0 mm 1 mps 636 mmHg 43%
    08:00 +21°C° 0 mm 1 mps 637 mmHg 36%
    09:00 +24°C° 0 mm 2 mps 638 mmHg 30%
    10:00 +25°C° 0 mm 2 mps 638 mmHg 29%
    11:00 +26°C° 0 mm 2 mps 638 mmHg 28%
    12:00 +27°C° 0 mm 3 mps 638 mmHg 27%
    13:00 +26°C° 0 mm 3 mps 637 mmHg 29%
    14:00 +26°C° 0 mm 3 mps 637 mmHg 30%
    15:00 +26°C° 0 mm 3 mps 636 mmHg 31%
    16:00 +24°C° 0 mm 3 mps 636 mmHg 39%
    17:00 +21°C° 0 mm 2 mps 635 mmHg 47%
    18:00 +19°C° 0 mm 2 mps 635 mmHg 54%
    19:00 +18°C° 0 mm 2 mps 635 mmHg 57%
    20:00 +17°C° 0 mm 2 mps 635 mmHg 59%
    21:00 +18°C° 0 mm 1 mps 635 mmHg 61%
    22:00 +18°C° 0 mm 1 mps 635 mmHg 59%
    23:00 +16°C° 0 mm 1 mps 635 mmHg 58%

    Tomorrow, 22 September, Friday

    Time Temperature Precipitation Wind Pressure Humidity
    00:00 +16°C° 0 mm 1 mps 635 mmHg 56%
    01:00 +16°C° 0 mm 1 mps 634 mmHg 56%
    02:00 +15°C° 0 mm 1 mps 634 mmHg 56%
    03:00 +15°C° 0 mm 1 mps 634 mmHg 56%
    04:00 +15°C° 0 mm 1 mps 634 mmHg 57%
    05:00 +15°C° 0 mm 1 mps 634 mmHg 58%
    06:00 +14°C° 0 mm 0 mps 634 mmHg 59%
    07:00 +18°C° 0 mm 1 mps 635 mmHg 51%
    08:00 +21°C° 0 mm 1 mps 636 mmHg 44%
    09:00 +23°C° 0 mm 1 mps 636 mmHg 37%
    10:00 +24°C° 0 mm 2 mps 636 mmHg 34%
    11:00 +25°C° 0 mm 2 mps 636 mmHg 31%
    12:00 +27°C° 0 mm 3 mps 636 mmHg 29%
    13:00 +27°C° 0 mm 3 mps 636 mmHg 29%
    14:00 +27°C° 0 mm 3 mps 635 mmHg 29%
    15:00 +27°C° 0 mm 3 mps 635 mmHg 30%
    16:00 +24°C° 0 mm 3 mps 634 mmHg 38%
    17:00 +21°C° 0 mm 2 mps 634 mmHg 47%
    18:00 +19°C° 0 mm 2 mps 633 mmHg 55%
    19:00 +19°C° 0 mm 2 mps 633 mmHg 57%
    20:00 +18°C° 0 mm 2 mps 634 mmHg 59%
    21:00 +19°C° 0 mm 1 mps 634 mmHg 61%
    22:00 +19°C° 0 mm 1 mps 634 mmHg 62%
    23:00 +18°C° 0 mm 1 mps 634 mmHg 62%

    Day after tomorrow, 23 September, Saturday

    Time Temperature Precipitation Wind Pressure Humidity
    00:00 +18°C° 0 mm 1 mps 634 mmHg 62%
    01:00 +16°C° 0 mm 1 mps 634 mmHg 66%
    02:00 +15°C° 0 mm 0 mps 634 mmHg 69%
    03:00 +14°C° 0 mm 0 mps 634 mmHg 72%
    04:00 +15°C° 0 mm 1 mps 634 mmHg 74%
    05:00 +14°C° 0 mm 1 mps 634 mmHg 76%
    06:00 +14°C° 0 mm 1 mps 634 mmHg 78%
    07:00 +16°C° 0 mm 2 mps 635 mmHg 70%
    08:00 +18°C° 0 mm 2 mps 636 mmHg 62%
    09:00 +21°C° 0 mm 2 mps 637 mmHg 54%
    10:00 +22°C° 0 mm 3 mps 637 mmHg 49%
    11:00 +24°C° 0 mm 3 mps 637 mmHg 44%
    12:00 +25°C° 0 mm 3 mps 637 mmHg 39%
    13:00 +25°C° 0.1 mm 3 mps 637 mmHg 39%
    14:00 +25°C° 0.1 mm 3 mps 637 mmHg 38%
    15:00 +24°C° 0.1 mm 3 mps 636 mmHg 38%
    16:00 +21°C° 0 mm 3 mps 636 mmHg 46%
    17:00 +19°C° 0 mm 2 mps 636 mmHg 54%
    18:00 +17°C° 0 mm 2 mps 635 mmHg 62%
    19:00 +17°C° 0 mm 2 mps 636 mmHg 65%
    20:00 +16°C° 0 mm 1 mps 636 mmHg 69%
    21:00 +15°C° 0 mm 1 mps 636 mmHg 72%
    22:00 +15°C° 0 mm 1 mps 636 mmHg 71%
    23:00 +15°C° 0 mm 1 mps 636 mmHg 70%

    24 September, Sunday

    Time Temperature Precipitation Wind Pressure Humidity
    00:00 +15°C° 0 mm 1 mps 636 mmHg 68%
    01:00 +14°C° 0 mm 1 mps 636 mmHg 68%
    02:00 +14°C° 0 mm 1 mps 636 mmHg 67%
    03:00 +14°C° 0 mm 1 mps 636 mmHg 66%
    04:00 +13°C° 0 mm 1 mps 636 mmHg 67%
    05:00 +13°C° 0 mm 1 mps 636 mmHg 68%
    06:00 +13°C° 0 mm 1 mps 636 mmHg 69%
    07:00 +15°C° 0 mm 2 mps 637 mmHg 63%
    08:00 +17°C° 0 mm 2 mps 638 mmHg 57%
    09:00 +19°C° 0 mm 2 mps 639 mmHg 51%
    10:00 +20°C° 0 mm 3 mps 639 mmHg 48%
    11:00 +22°C° 0 mm 3 mps 639 mmHg 46%
    12:00 +23°C° 0 mm 4 mps 639 mmHg 43%
    13:00 +22°C° 0.1 mm 4 mps 638 mmHg 47%
    14:00 +22°C° 0.1 mm 4 mps 638 mmHg 51%
    15:00 +22°C° 0.1 mm 4 mps 638 mmHg 54%
    16:00 +20°C° 0.1 mm 3 mps 638 mmHg 63%
    17:00 +19°C° 0.1 mm 3 mps 637 mmHg 72%
    18:00 +17°C° 0.1 mm 2 mps 637 mmHg 81%
    19:00 +17°C° 0 mm 2 mps 637 mmHg 83%
    20:00 +16°C° 0 mm 2 mps 637 mmHg 85%
    21:00 +16°C° 0 mm 2 mps 638 mmHg 87%
    22:00 +15°C° 0 mm 1 mps 637 mmHg 88%
    23:00 +15°C° 0 mm 1 mps 637 mmHg 88%

    25 September, Monday

    Time Temperature Precipitation Wind Pressure Humidity
    00:00 +14°C° 0 mm 1 mps 637 mmHg 89%
    01:00 +14°C° 0 mm 1 mps 637 mmHg 90%
    02:00 +14°C° 0 mm 1 mps 637 mmHg 90%
    03:00 +13°C° 0 mm 1 mps 636 mmHg 90%
    04:00 +13°C° 0 mm 1 mps 637 mmHg 90%
    05:00 +13°C° 0 mm 1 mps 637 mmHg 91%
    06:00 +13°C° 0 mm 1 mps 637 mmHg 91%
    07:00 +15°C° 0 mm 1 mps 637 mmHg 84%
    08:00 +16°C° 0 mm 2 mps 638 mmHg 77%
    09:00 +17°C° 0 mm 2 mps 638 mmHg 70%
    10:00 +19°C° 0 mm 2 mps 638 mmHg 63%
    11:00 +20°C° 0 mm 2 mps 638 mmHg 57%
    12:00 +21°C° 0 mm 3 mps 638 mmHg 51%
    13:00 +21°C° 0 mm 3 mps 638 mmHg 51%
    14:00 +21°C° 0 mm 3 mps 638 mmHg 52%
    15:00 +21°C° 0 mm 3 mps 638 mmHg 52%
    16:00 +20°C° 0 mm 3 mps 637 mmHg 61%
    17:00 +18°C° 0 mm 2 mps 637 mmHg 70%
    18:00 +17°C° 0 mm 2 mps 637 mmHg 80%
    19:00 +16°C° 0 mm 2 mps 637 mmHg 82%
    20:00 +16°C° 0 mm 1 mps 637 mmHg 85%
    21:00 +15°C° 0 mm 1 mps 638 mmHg 87%
    22:00 +15°C° 0 mm 1 mps 637 mmHg 88%
    23:00 +15°C° 0 mm 1 mps 637 mmHg 89%

    26 September, Tuesday

    Time Temperature Precipitation Wind Pressure Humidity
    00:00 +14°C° 0 mm 1 mps 637 mmHg 90%
    01:00 +14°C° 0 mm 1 mps 637 mmHg 90%
    02:00 +14°C° 0 mm 1 mps 637 mmHg 90%
    03:00 +13°C° 0 mm 1 mps 637 mmHg 91%
    04:00 +13°C° 0 mm 1 mps 637 mmHg 90%
    05:00 +13°C° 0 mm 1 mps 637 mmHg 90%
    06:00 +13°C° 0 mm 1 mps 637 mmHg 89%
    07:00 +15°C° 0 mm 1 mps 638 mmHg 80%
    08:00 +17°C° 0 mm 2 mps 638 mmHg 70%
    09:00 +19°C° 0 mm 2 mps 639 mmHg 60%
    10:00 +20°C° 0 mm 3 mps 639 mmHg 54%
    11:00 +22°C° 0 mm 3 mps 639 mmHg 47%
    12:00 +24°C° 0 mm 3 mps 639 mmHg 41%
    13:00 +24°C° 0 mm 3 mps 638 mmHg 42%
    14:00 +24°C° 0 mm 3 mps 638 mmHg 42%
    15:00 +24°C° 0 mm 3 mps 638 mmHg 43%
    16:00 +21°C° 0 mm 3 mps 637 mmHg 53%
    17:00 +19°C° 0 mm 2 mps 637 mmHg 64%
    18:00 +18°C° 0 mm 2 mps 637 mmHg 74%
    19:00 +18°C° 0 mm 2 mps 637 mmHg 75%
    20:00 +18°C° 0 mm 2 mps 637 mmHg 75%
    21:00 +18°C° 0 mm 1 mps 637 mmHg 75%
    22:00 +18°C° 0 mm 1 mps 637 mmHg 78%
    23:00 +16°C° 0 mm 1 mps 637 mmHg 80%
    Show more